Air Resources Laboratory banner image
Air Resources Laboratory web site National Oceanic and Atmospheric Administration (NOAA)

ga roundup


Office: FFC

ASUS42 KFFC 191303
RWRGA
WEATHER ROUNDUP FOR GEORGIA
NATIONAL WEATHER SERVICE PEACHTREE CITY GA
900 AM EDT SUN AUG 19 2018

NOTE: "FAIR" INDICATES FEW OR NO CLOUDS BELOW 12,000 FEET WITH NO
SIGNIFICANT WEATHER AND/OR OBSTRUCTIONS TO VISIBILITY.

* = USE WITH CAUTION. THE STATIONS MARKED WITH AN ASTERISK MAY NOT
REPORT WEATHER SUCH AS PRECIPITATION, FOG, OR THUNDER AND ARE NOT
QUALITY CONTROLLED BY NWS.

THE REMARK "TC" DENOTES TEMPERATURE READING IN DEGREES CELSIUS.

GAZ001>058-191400-
NORTH GEORGIA

CITY           SKY/WX    TMP DP  RH WIND       PRES   REMARKS
ATLANTA        CLOUDY    74  70  87 SW5       30.03R
ATHENS         CLOUDY    74  73  97 CALM      30.02R
CHAMBLEE       CLOUDY    75  71  87 SW6       30.02S
PEACHTREE CITY CLOUDY    74  72  93 CALM      30.04R
ROME           CLOUDY    75  72  90 SW6       29.99S
WEST ATLANTA   PTSUNNY   75  73  93 SW3       30.02R
GAINESVILLE    FAIR      75  73  93 W9        30.04R
CARTERSVILLE   CLOUDY    76  74  93 CALM      30.01R


CITY           SKY/WX    TMP DP  RH WIND       PRES   REMARKS
DALTON*        CLOUDY    73  73 100 SE3       30.01R
LAWRENCEVILLE* CLOUDY    75  73  93 SW6       30.03R
MARIETTA       PTSUNNY   75  70  83 SW7       30.02R
KENNESAW*      PTSUNNY   75  71  87 W7        30.03R
CANTON*        CLOUDY    75  72  88 CALM      30.04R
BLAIRSVILLE*   PTSUNNY   71  69  94 CALM      30.06R
$$

GAZ059>098-102>109-191400-
CENTRAL GEORGIA

CITY           SKY/WX    TMP DP  RH WIND       PRES   REMARKS
AUGUSTA-BUSH   FAIR      79  74  84 SW9       30.01S
AUGUSTA-DANIEL FAIR      77  74  90 VRB5      30.02S
COLUMBUS       CLOUDY    74  71  91 SW5       30.04R
MACON          FAIR      77  73  87 W7        30.04R
ROBINS AFB     PTSUNNY   78  74  85 SW5       30.02R


CITY           SKY/WX    TMP DP  RH WIND       PRES   REMARKS
LAGRANGE*      CLOUDY    74  74  99 SW3       30.04S
SYLVANIA*        N/A     76  75  96 W3        30.05R
MILLEDGEVILLE* FAIR      73  73 100 CALM      30.03R
$$

GAZ099>101-110>166-191400-
SOUTH GEORGIA

CITY           SKY/WX    TMP DP  RH WIND       PRES   REMARKS
SAVANNAH       PTSUNNY   80  75  84 SW9       30.05R
VALDOSTA       FAIR      77  75  93 CALM      30.05R
ALMA           FAIR      80  74  81 SW5       30.05R
ST SIMONS      FAIR      81  74  79 SW7       30.05R
FT STEWART     FAIR      80  74  82 SW6       30.03R
ALBANY         PTSUNNY   77  74  90 W6        30.06R
HUNTER AFB     FAIR      78  75  88 W6        30.02R
MOODY AFB      FAIR      81  76  84 S6        30.05R
BRUNSWICK      FAIR      81  73  78 SW6       30.06R


CITY           SKY/WX    TMP DP  RH WIND       PRES   REMARKS
BAINBRIDGE*      N/A     81  73  78 CALM      30.05R
MOULTRIE*      FAIR      77  73  88 CALM      30.06S
VIDALIA*       CLOUDY    77  72  83 W3        30.05R
WAYCROSS*      FAIR      79  76  90 SW5       30.05S
DOUGLAS*       FAIR      79  77  94 W5        30.07R
$$


ASUS42 KFFC 191310
RWRGA
WEATHER ROUNDUP FOR GEORGIA
NATIONAL WEATHER SERVICE PEACHTREE CITY GA
900 AM EDT SUN AUG 19 2018

NOTE: "FAIR" INDICATES FEW OR NO CLOUDS BELOW 12,000 FEET WITH NO
SIGNIFICANT WEATHER AND/OR OBSTRUCTIONS TO VISIBILITY.

* = USE WITH CAUTION. THE STATIONS MARKED WITH AN ASTERISK MAY NOT
REPORT WEATHER SUCH AS PRECIPITATION, FOG, OR THUNDER AND ARE NOT
QUALITY CONTROLLED BY NWS.

THE REMARK "TC" DENOTES TEMPERATURE READING IN DEGREES CELSIUS.

GAZ001>058-191400-
NORTH GEORGIA

CITY           SKY/WX    TMP DP  RH WIND       PRES   REMARKS
ATLANTA        CLOUDY    74  70  87 SW5       30.03R
ATHENS         CLOUDY    74  73  97 CALM      30.02R
CHAMBLEE       CLOUDY    75  71  87 SW6       30.02S
PEACHTREE CITY CLOUDY    74  72  93 CALM      30.04R
ROME           CLOUDY    75  72  90 SW6       29.99S
WEST ATLANTA   PTSUNNY   75  73  93 SW3       30.02R
GAINESVILLE    PTSUNNY   76  73  91 W10       30.05R
CARTERSVILLE   CLOUDY    76  74  93 CALM      30.01R


CITY           SKY/WX    TMP DP  RH WIND       PRES   REMARKS
DALTON*        CLOUDY    73  73 100 SE3       30.01R
LAWRENCEVILLE* CLOUDY    75  73  93 SW6       30.03R
MARIETTA       PTSUNNY   75  70  83 SW7       30.02R
KENNESAW*      PTSUNNY   75  71  87 W7        30.03R
CANTON*        CLOUDY    75  72  88 CALM      30.04R
BLAIRSVILLE*   PTSUNNY   71  69  94 CALM      30.06R
$$

GAZ059>098-102>109-191400-
CENTRAL GEORGIA

CITY           SKY/WX    TMP DP  RH WIND       PRES   REMARKS
AUGUSTA-BUSH   FAIR      79  74  84 SW9       30.01S
AUGUSTA-DANIEL FAIR      77  74  90 VRB5      30.02S
COLUMBUS       CLOUDY    74  71  91 SW5       30.04R
MACON          FAIR      77  73  87 W7        30.04R
ROBINS AFB     PTSUNNY   79  73  83 W7        30.03R


CITY           SKY/WX    TMP DP  RH WIND       PRES   REMARKS
LAGRANGE*      CLOUDY    74  74  99 SW3       30.04S
SYLVANIA*        N/A     76  75  96 W3        30.05R
MILLEDGEVILLE* FAIR      73  73 100 CALM      30.03R
$$

GAZ099>101-110>166-191400-
SOUTH GEORGIA

CITY           SKY/WX    TMP DP  RH WIND       PRES   REMARKS
SAVANNAH       PTSUNNY   80  75  84 SW9       30.05R
VALDOSTA       FAIR      77  75  93 CALM      30.05R
ALMA           FAIR      80  74  81 SW5       30.05R
ST SIMONS      FAIR      81  74  79 SW7       30.05R
FT STEWART     FAIR      80  74  82 SW6       30.03R
ALBANY         PTSUNNY   77  74  90 W6        30.06R
HUNTER AFB     FAIR      78  75  88 W6        30.02R
MOODY AFB      FAIR      81  76  84 S6        30.05R
BRUNSWICK      FAIR      81  73  78 SW6       30.06R


CITY           SKY/WX    TMP DP  RH WIND       PRES   REMARKS
BAINBRIDGE*      N/A     81  73  78 CALM      30.05R
MOULTRIE*      FAIR      77  73  88 CALM      30.06S
VIDALIA*       CLOUDY    77  72  83 W3        30.05R
WAYCROSS*      FAIR      79  76  90 SW5       30.05S
DOUGLAS*       FAIR      79  77  94 W5        30.07R
$$




Office: CHS ASUS42 KCHS 191312 RWRCHS Regional Weather Roundup National Weather Service Charleston SC 900 AM EDT SUN AUG 19 2018 NOTE: "fair" indicates few or no clouds below 12,000 feet with no significant weather and/or obstructions to visibility. Not all stations are quality controlled. Use data with caution, especially dewpoint observations. SCZ027-030-031-034>040-042>050-191400- ...Southeast South Carolina... CITY SKY/WX TMP DP RH WIND PRES REMARKS N Charleston PTSUNNY 79 75 87 SW8 30.03R Waterfront Prk N/A 80 76 87 VRB3 29.87R Mount Pleasant NOT AVBL Johns Island FAIR 81 77 89 CALM 30.03R Pinopolis N/A 77 75 94 SW9 29.95R Moncks Corner FAIR 79 75 89 SW8 30.03R Summerville FAIR 75 73 94 SW3 30.04R Beaufort MCAS FAIR 81 76 84 SW9 30.03R Beaufort Arpt FAIR 81 73 78 SW9 30.04R Hilton Head Is PTSUNNY 81 75 83 SW7 30.05R Walterboro FAIR 77 73 88 W6 30.04R Allendale FAIR 79 75 89 VRB5 30.02S ...Southern Midlands and Pee Dee... CITY SKY/WX TMP DP RH WIND PRES REMARKS Georgetown FAIR 75 75 100 SW6 30.03R Kingstree CLOUDY 75 73 94 CALM 30.02R Orangeburg PTSUNNY 77 72 84 SW7 30.02S Barnwell PTSUNNY 77 73 88 SW6 30.03R Aiken PTSUNNY 73 73 100 SW8 30.05R Manning PTSUNNY 72 70 94 CALM 30.02R Columbia PTSUNNY 79 74 84 SW9 29.99S Sumter FAIR 77 72 83 SW9 30.00R Florence CLOUDY 77 72 84 W8 30.01R Myrtle Beach FAIR 78 72 81 W6 30.03R N Myrtle Beach FAIR 78 72 81 W8 30.01R $$ GAZ063-065-086>088-099>101-113>116-118-119-134>141-150-191400- ...Southeast Georgia... CITY SKY/WX TMP DP RH WIND PRES REMARKS Savannah Arpt PTSUNNY 80 75 84 SW9 30.05R Hunter AAF FAIR 78 75 88 W6 30.02R Fort Stewart FAIR 80 74 82 SW6 30.03R Statesboro FAIR 76 74 92 SW5 30.04R Sylvania N/A 76 75 96 W3 30.05R Claxton FAIR 78 76 92 CALM 30.04R ...CSRA, Central and far Southeast Georgia... CITY SKY/WX TMP DP RH WIND PRES REMARKS Thomson CLOUDY 75 72 90 NW3 30.08R Augusta-Bush FAIR 79 74 84 SW9 30.01S Augusta-Daniel FAIR 77 74 90 VRB5 30.02S Swainsboro CLOUDY 77 73 88 W6 30.05R Vidalia CLOUDY 77 72 83 W3 30.05R Eastman FAIR 82 32 16 SW5 N/A Hazlehurst FAIR 80 74 81 SW6 30.04R Alma FAIR 80 74 81 SW5 30.05R Waycross FAIR 79 76 90 SW5 30.05S Jesup FAIR 81 73 78 CALM 30.06R Baxley PTSUNNY 79 77 94 SW6 30.05R Brunswick FAIR 81 73 78 SW6 30.06R Saint Simons FAIR 81 74 79 SW7 30.05R $$ SCZ027-028-034-036>038-045-046-048>050-GAZ119-141-191400- ...Lake and Supplemental Coastal Observations... STATION/POSITION TIME TEMP WIND PRES WAVE SWELL AIR SEA DIR/SP/G HT/PER HT/PER/DIR (UTC) (F) (DEG/KT/KT) (MB) (FT/S) (FT/S/D) Winyah Bay 1145 76 250/ 5 1016.0 Lake Murray 1220 77 210/ 13/ 17 1014.9R ACE Basin NERRS 1145 79 230/ 2 1016.0 Fort Pulaski 1242 80 84 260/ 5/ 8 1017.7R Sapelo Island 1200 78 240/ 9 1017.0 $$ ANZ835-935-AMZ111-154-330-350-352-354-370-450-454-472-191400- ...C-MAN and Buoy Observations... STATION/POSITION TIME TEMP WIND PRES WAVE SWELL AIR SEA DIR/SP/G HT/PER HT/PER/DIR (UTC) (F) (DEG/KT/KT) (MB) (FT/S) (FT/S/D) Buoy 41004 1250 82 82 240/ 14/ 16 1017.1R 4/ 5 2/140/ 8 Buoy 41008 1250 82 82 230/ 10/ 12 1017.4R 2/ 5 2/100/ 8 Folly Beach CMAN 1200 80 240/ 4/ 5 1017.0R Capers Nearshore 1208 82 81 270/ 8/ 12 1015.5R Fripp Nearshore 1208 82 84 260/ 14/ 19 1016.4R STATION/POSITION TIME TEMP WIND PRES WAVE SWELL AIR SEA DIR/SP/G HT/PER HT/PER/DIR (UTC) (F) (DEG/KT/KT) (MB) (FT/S) (FT/S/D) 5E St. Marys GA 1230 80 N/A 2/ 8 Frying Pan Buoy 1250 83 83 240/ 16/ 21 1016.5R 4/ 6 Buoy 41025 1250 81 78 230/ 21/ 25 1015.1R 5/ 6 3/220/12 Cape Lookout NC 1200 250/ 11/ 14 1015.4R Buoy 41002 1250 83 230/ 10/ 14 N/A 3/ 5 2/170/ 7 Buoy 41010 1250 84 85 160/ 8/ 10 1019.0R 2/ 6 2/130/ 6 St Augustine FL 1300 78 78 120/ 3/ 3 1018.6R $$ ASUS42 KCHS 191327 RWRCHS Regional Weather Roundup National Weather Service Charleston SC 900 AM EDT SUN AUG 19 2018 NOTE: "fair" indicates few or no clouds below 12,000 feet with no significant weather and/or obstructions to visibility. Not all stations are quality controlled. Use data with caution, especially dewpoint observations. SCZ027-030-031-034>040-042>050-191400- ...Southeast South Carolina... CITY SKY/WX TMP DP RH WIND PRES REMARKS N Charleston PTSUNNY 79 75 87 SW8 30.03R Waterfront Prk N/A 80 76 87 VRB3 29.87R Mount Pleasant FAIR 81 75 83 SW6 30.03R Johns Island FAIR 81 77 89 CALM 30.03S Pinopolis N/A 77 75 94 SW9 29.95R Moncks Corner FAIR 77 75 94 SW7 30.03R Summerville FAIR 77 73 88 SW5 30.04R Beaufort MCAS FAIR 81 76 84 SW9 30.03R Beaufort Arpt FAIR 81 73 78 SW8 30.04R Hilton Head Is PTSUNNY 81 75 83 SW7 30.05R Walterboro FAIR 77 73 88 W7 30.04R Allendale FAIR 77 75 94 CALM 30.03R ...Southern Midlands and Pee Dee... CITY SKY/WX TMP DP RH WIND PRES REMARKS Georgetown FAIR 77 75 94 W5 30.03S Kingstree CLOUDY 77 75 94 SW5 30.01S Orangeburg FAIR 78 72 81 SW8 30.02S Barnwell PTSUNNY 77 73 88 SW7 30.03R Aiken CLOUDY 73 73 100 SW9 30.05S Manning CLOUDY 73 70 88 CALM 30.02S Columbia PTSUNNY 79 74 84 SW9 29.99S Sumter FAIR 77 72 83 SW9 30.00R Florence CLOUDY 77 72 84 W8 30.01R Myrtle Beach FAIR 78 72 81 W6 30.03R N Myrtle Beach FAIR 78 72 81 W8 30.01R $$ GAZ063-065-086>088-099>101-113>116-118-119-134>141-150-191400- ...Southeast Georgia... CITY SKY/WX TMP DP RH WIND PRES REMARKS Savannah Arpt PTSUNNY 80 75 84 SW9 30.05R Hunter AAF FAIR 78 75 88 W6 30.02R Fort Stewart FAIR 80 74 82 SW6 30.03R Statesboro PTSUNNY 77 74 91 W5 30.05R Sylvania N/A 77 76 95 CALM 30.05R Claxton PTSUNNY 79 76 91 CALM 30.05R ...CSRA, Central and far Southeast Georgia... CITY SKY/WX TMP DP RH WIND PRES REMARKS Thomson CLOUDY 76 72 88 NW7 30.08R Augusta-Bush FAIR 79 74 84 SW9 30.01S Augusta-Daniel PTSUNNY 78 74 87 VRB6 30.03R Swainsboro CLOUDY 77 75 94 W5 30.06R Vidalia CLOUDY 77 73 88 W6 30.06R Eastman PTSUNNY 82 32 16 SW6 N/A Hazlehurst FAIR 81 73 78 W5 30.04S Alma FAIR 80 74 81 SW5 30.05R Waycross FAIR 79 76 90 SW5 30.06R Jesup FAIR 81 73 78 CALM 30.06R Baxley PTSUNNY 79 79 100 W3 30.05S Brunswick FAIR 81 73 78 SW8 30.06S Saint Simons FAIR 81 74 79 SW7 30.05R $$ SCZ027-028-034-036>038-045-046-048>050-GAZ119-141-191400- ...Lake and Supplemental Coastal Observations... STATION/POSITION TIME TEMP WIND PRES WAVE SWELL AIR SEA DIR/SP/G HT/PER HT/PER/DIR (UTC) (F) (DEG/KT/KT) (MB) (FT/S) (FT/S/D) Winyah Bay 1245 78 260/ 6 1017.0R Lake Murray 1220 77 210/ 13/ 17 1014.9R ACE Basin NERRS 1245 81 230/ 2 1017.0R Fort Pulaski 1248 80 84 260/ 6/ 8 1017.8R Sapelo Island 1300 81 230/ 8 1017.0 $$ ANZ835-935-AMZ111-154-330-350-352-354-370-450-454-472-191400- ...C-MAN and Buoy Observations... STATION/POSITION TIME TEMP WIND PRES WAVE SWELL AIR SEA DIR/SP/G HT/PER HT/PER/DIR (UTC) (F) (DEG/KT/KT) (MB) (FT/S) (FT/S/D) Buoy 41004 1300 82 82 240/ 14/ 16 1017.2 Buoy 41008 1250 82 82 230/ 10/ 12 1017.4R 2/ 5 2/100/ 8 Folly Beach CMAN 1200 80 240/ 4/ 5 1017.0R Capers Nearshore 1308 82 81 270/ 12/ 16 1016.1R Fripp Nearshore 1308 82 84 270/ 12/ 17 1016.9R STATION/POSITION TIME TEMP WIND PRES WAVE SWELL AIR SEA DIR/SP/G HT/PER HT/PER/DIR (UTC) (F) (DEG/KT/KT) (MB) (FT/S) (FT/S/D) 5E St. Marys GA 1300 80 N/A 2/ 8 Frying Pan Buoy 1300 83 240/ 16/ 19 1016.5 Buoy 41025 1300 81 78 230/ 19/ 23 1015.0 Cape Lookout NC 1200 250/ 11/ 14 1015.4R Buoy 41002 1250 83 230/ 10/ 14 N/A 3/ 5 2/170/ 7 Buoy 41010 1300 84 85 150/ 8/ 10 1019.0 St Augustine FL 1300 78 78 120/ 3/ 3 1018.6R $$